カタログに戻る

STARLINK-36153

運用中通信VLEO
NORAD 66934·PAYLOAD·🇺🇸 United States

打ち上げ Dec 7, 2025 から Vandenberg Space Force Base

Loading…

次のパス (今後24時間)

TLE

最新Source: CelesTrak SupGP

元期: Sep 14, 2026, 23:14 UTC

1 66934C 25286K   26257.96854167 -.00041490  00000+0 -12249-2 0  2575
2 66934  53.1592 195.7686 0001322  91.5984 339.9543 15.34435070    10

AllMySatでSTARLINK-36153をリアルタイム追跡

Download on the App Store